www.pogodaiklimat.ru

Погода и климат >> Архив погоды >> Россия >> Якутия >> Столб Остров


ПОГОДА на Столб Острове

  • Прогноз погоды на Столб Острове
  • Монитор погоды на Столб Острове

АРХИВ ПОГОДЫ на Столб Острове

Время (UTC), дата Ветер
(напр.,м/с)
 
Видим.   Явления Облачность Т
(С)
Тd
(С)
f
(%)
Тe
(С)
Тes
(С)
Комфортность P
(гПа)
Po
(гПа)
Тmin
(С)
Tmax
(С)
R
(мм)
R24
(мм)
S
(см)
03 11.07 З 5 20 км 10/6 600 м
[Sc Ac trans Ci fib]
+13.9 +8.3 69 +12 +13 1009.1 1006.8
06 11.07 З 6 20 км {ливн. осадки} 10/10 600 м
[Cb cap]
+12.8 +7.5 70 +10 +10 1011.0 1008.6
09 11.07 СЗ 3 20 км 10/6 600 м
[Sc Ac trans Ci fib]
+13.7 +6.4 61 +13 +13 1011.3 1008.9
12 11.07 З 1 50 км 10/10 600 м
[Sc]
+13.9 +4.9 55 +14 +14 1011.9 1009.5 +14.3 0.0
15 11.07 ЮВ 1 50 км 10/3 600 м
[Sc Ac trans Ci fib]
+10.6 +6.6 76 +10 +10 1012.0 1009.6
18 11.07 ЮВ 3 50 км 10/0
[Ac trans]
+11.2 +7.5 78 +9 +10 1012.0 1009.6
21 11.07 ЮВ 4 50 км 10/0
[Ac trans]
+12.2 +8.8 80 +10 +11 1010.6 1008.2
00 12.07 ЮВ 5 20 км в посл. час ливневой дождь 10/10 300 м
[Cb cap]
+12.8 +10.5 86 +11 +11 1007.0 1004.6 +9.7 0.6
03 12.07 ЮВ 5 20 км {дождь} 10/0
[Ac und]
+14.7 +12.7 88 +13 +15 1003.6 1001.2
06 12.07 Ю 3 20 км {ливн. осадки, дождь} 10/10 600 м
[Cb cap]
+17.2 +14.6 85 +17 +17 1002.7 1000.4
09 12.07 З 6 10 км слаб. дождь 10/10 600 м
[Sc]
+14.7 +12.1 84 +13 +13 1003.3 1001.0
12 12.07 СЗ 6 20 км {дождь} 10/10 600 м
[Sc]
+13.4 +10.7 84 +11 +11 1005.3 1003.0 +17.8 0.9
15 12.07 СЗ 5 20 км 10/10 600 м
[Sc]
+11.0 +8.4 84 +8 +8 1007.6 1005.2
18 12.07 ЮЗ 5 20 км 10/10 600 м
[Sc]
+10.2 +7.9 86 +7 +7 1008.6 1006.2
21 12.07 СЗ 8-10
{12}
20 км {дождь} 10/10 600 м
[Sc]
+8.1 +6.4 89 +3 +3 1009.5 1007.1
00 13.07 З 6
{12}
50 км {дождь} 10/10 600 м
[Sc]
+9.2 +5.0 75 +6 +6 1010.7 1008.3 +7.6 0.0
03 13.07 З 7
{10}
20 км 10/8 600 м
[Sc Ci fib]
+10.3 +5.0 70 +7 +7 1010.5 1008.1
06 13.07 СЗ 2 20 км 10/4 600 м
[Sc Ac trans Ci fib]
+10.8 +3.3 60 +10 +12 1010.5 1008.1
09 13.07 С 3 50 км 10/0
[Ac trans Ci fib]
+12.0 +3.7 57 +11 +12 1009.3 1006.9
12 13.07 В 4 50 км 10/6 600 м
[Sc Ac und]
+12.2 +6.1 66 +10 +10 1008.6 1006.2 +12.8
15 13.07 штиль 0 50 км 10/10 600 м
[Sc]
+11.6 +5.8 68 +11 +11 1007.6 1005.2
18 13.07 штиль 0 20 км 10/0
[Ac trans]
+12.8 +8.8 77 +12 +13 1007.1 1004.7
21 13.07 С 3 10 км слаб. дождь 10/10
[Sc]
+10.6 +8.4 86 +9 +9 1007.1 1004.7
00 14.07 С 5 20 км {дождь} 10/10 300 м
[Sc]
+11.2 +6.6 73 +9 +9 1008.0 1005.6 +10.3 0.5
03 14.07 С 6 50 км 10/10 600 м
[Sc]
+11.8 +3.5 57 +9 +9 1009.5 1007.1
06 14.07 СЗ 5 50 км 10/10 300 м
[Sc]
+10.8 +2.4 56 +8 +8 1011.7 1009.3
09 14.07 С 4 50 км 10/10 300 м
[Sc]
+10.3 +1.5 54 +8 +8 1013.3 1010.9
12 14.07 С 5 50 км 8/8 300 м
[Sc]
+9.9 +2.7 61 +7 +7 1013.4 1011.0 +12.5
15 14.07 СЗ 1 20 км 10/10 600 м
[Sc]
+9.2 +2.3 62 +9 +9 1013.0 1010.6
18 14.07 СЗ 4 20 км 10/10 600 м
[Sc]
+7.4 +2.3 70 +4 +4 1012.9 1010.5
21 14.07 З 5 20 км 10/10 600 м
[Sc]
+6.8 +0.8 66 +3 +3 1012.9 1010.5
00 15.07 СЗ 6 20 км 10/10 600 м
[Cb calv]
+6.0 +2.1 76 +1 +1 1012.5 1010.1 +5.8
03 15.07 З 9-13
{14}
20 км 10/10 600 м
[Cb calv]
+9.0 +5.5 79 +4 +4 1012.9 1010.5
06 15.07 СЗ 9-12
{14}
20 км 10/10 600 м
[Sc]
+9.1 +4.9 75 +5 +5 1013.4 1011.0
09 15.07 З 9-12
{13}
20 км 10/10 600 м
[Sc]
+10.5 +5.7 72 +7 +7 1013.2 1010.8
12 15.07 З 8-11
{13}
20 км 10/10 600 м
[Sc]
+9.5 +4.1 69 +5 +5 1013.1 1010.7 +11.1
15 15.07 З 9-11
{14}
20 км 10/10 600 м
[Sc]
+9.2 +3.2 66 +5 +5 1012.9 1010.5
18 15.07 З 11-12
{14}
50 км 10/3 600 м
[Sc Ac trans Ci fib]
+9.2 +2.9 65 +4 +4 1012.6 1010.2
21 15.07 СЗ 12-14
{17}
20 км 10/10 600 м
[Sc]
+8.8 +4.5 74 +4 +4 1012.7 1010.3
00 16.07 СЗ 10-11
{16}
20 км 10/10 600 м
[Sc]
+7.8 +5.8 87 +2 +2 1013.0 1010.6 +7.6
03 16.07 СЗ 7
{13}
20 км 10/10 600 м
[Sc]
+7.3 +4.8 84 +3 +3 1013.3 1010.9 +7.3
06 16.07 СЗ 6
{11}
20 км 10/10 600 м
[Sc]
+8.4 +5.0 79 +4 +4 1012.9 1010.5
09 16.07 СЗ 5
{10}
20 км 10/10 600 м
[Sc]
+9.2 +5.7 79 +6 +6 1012.5 1010.1
12 16.07 СЗ 5 20 км 10/10 600 м
[Sc]
+8.2 +4.7 79 +5 +5 1012.2 1009.8 +9.5
15 16.07 С 4 20 км 10/10 600 м
[Sc]
+6.0 +4.1 88 +2 +2 1010.7 1008.3
18 16.07 С 4 20 км 10/10 600 м
[Sc]
+5.8 +4.2 89 +2 +2 1011.4 1009.0
21 16.07 СВ 4 20 км 10/10 600 м
[Sc]
+5.0 +3.3 89 +1 +1 1011.7 1009.3
00 17.07 СВ 4 20 км 10/10 600 м
[Sc]
+4.6 +1.3 79 0 0 1013.0 1010.6 +4.3
03 17.07 С 5 20 км 10/10 600 м
[Sc]
+5.2 +1.4 76 +1 +1 1013.9 1011.5
06 17.07 С 6 20 км 10/10 600 м
[Sc]
+7.4 +3.1 74 +3 +3 1014.4 1012.0
09 17.07 С 9-11
{12}
10 км слаб. дождь 10/10 600 м
[Sc]
+5.2 +3.5 89 -1 -1 1015.2 1012.8
12 17.07 С 9-11
{14}
20 км {дождь} 10/10 600 м
[Sc]
+5.6 +3.5 86 -0 -0 1017.3 1014.9 +7.9 0.5
15 17.07 С 8
{11}
20 км 10/10 300 м
[Sc]
+4.7 +3.5 92 -1 -1 1019.3 1016.9
18 17.07 С 7
{11}
20 км в посл. час ливневой дождь 10/10 300 м
[Cb cap]
+4.2 +3.0 92 -2 -2 1021.4 1019.0
21 17.07 С 7
{10}
20 км 10/10 300 м
[Cb cap]
+4.4 +2.9 90 -1 -1 1021.7 1019.3

 

Местоположение метеостанции Столб Остров (Якутия, Россия): широта 72.40 долгота 126.30 высота над уровнем моря 20 м.

В архиве по умолчанию представлена погода на Столб Острове за последнюю неделю. Архивные данные за месяц целиком и за предыдущие месяцы, начиная с января 2011 года, Вы можете получить, выбрав интересующий диапазон дат из раскрывающегося списка и нажав кнопку "Ввод!".


*Определитесь, кто Вы:
робот инопланетянин человек

Внимание! Время в таблицах - всемирное. Для получения местного времени необходимо прибавить поправку, которая равна 9 ч.

Смотрите также архив погоды в соседних городах и на ближайших метеорологических станциях:

Погода на Мысе Быков (Якутия, Россия) (105 км)
Погода в Тюмяти (Якутия, Россия) (109 км)
Погода в Тикси (Якутия, Россия) (128 км)
Погода в Кюсюре (Якутия, Россия) (195 км)
Погода на Усть-Оленеке (Якутия, Россия) (225 км)
Погода в Юбилейной (Якутия, Россия) (392 км)
Погода в Джарджане (Якутия, Россия) (417 км)
Погода в Саскылахе (Якутия, Россия) (421 км)
Погода в Усть-Куйге (Якутия, Россия) (426 км)
Погода в Анабаре (Якутия, Россия) (430 км)

Пояснения к столбцам:

Ветер - указаны скорость ветра в м/с - средняя за 10 мин, порывы в срок и между сроками (в фигурных скобках) и направление, откуда дует ветер: С - северный, СВ - северо-восточный, В - восточный, ЮВ - юго-восточный, Ю - южный, ЮЗ - юго-западный, З - западный, СЗ - северо-западный.
Видимость - горизонтальная дальность видимости в метрах или километрах. При видимости от 1 до 10 км при отсутствии осадков обычно наблюдается дымка, при ухудшении видимости до 1 км и менее - туман. В сухую погоду видимость может ухудшаться дымом, пылью или мглою.
Явления - указаны атмосферные явления, наблюдавшиеся в срок или в последний час перед сроком; фигурными скобками обозначены явления, наблюдавшиеся между сроками (за 1-3 часа до срока); квадратными скобками обозначены град или гололедные отложения с указанием их диаметра в мм.
Облачность - указаны через наклонную черту общая и нижняя облачность в баллах и высота нижней границы облаков в метрах; квадратными скобками обозначены формы облаков: Ci - перистые, Cs - перисто-слоистые, Cc - перисто-кучевые, Ac - высококучевые, As - высокослоистые, Sc - слоисто-кучевые, Ns - слоисто-дождевые, Cu - кучевые, Cb - кучево-дождевые. Подробнее классификацию облаков см. в Атласе облаков (PDF).
T - Температура воздуха - температура, измеренная на высоте 2 м над землей.
Td - Температура точки росы - температура, при понижении до которой содержащийся в воздухе водяной пар достигнет насыщения.
f - Относительная влажность воздуха - влажноcть воздуха, измеренная на высоте 2 м над землей.
Te - Эффективная температура - температура, которую ощущает одетый по сезону человек в тени. Характеристика душности погоды. При расчете учитывается влияние влажности воздуха и скорости ветра на теплоощущения человека.
Tes - Эффективная температура на солнце - температура, которую ощущает человек, с поправкой на солнечный нагрев. Характеристика знойности погоды. Зависит от высоты солнца над горизонтом, облачности и скорости ветра. Ночью, в пасмурную погоду, а также при ветре 12 м/с и более поправка равна нулю.
P - Атмосферное давление - приведенное к уровню моря атмосферное давление.
Po - Атмосферное давление - измеренное на уровне метеостанции атмосферное давление.
Tmin - Минимальная температура - минимум температуры воздуха на высоте 2 м над землей.
Tmax - Максимальная температура - максимум температуры воздуха на высоте 2 м над землей.
R - Количество осадков - Количество выпавших осадков за период времени, мм. При наведении курсора мыши на число - период времени, за который выпало указанное количество осадков.
R24 - Количество осадков - Количество выпавших осадков за 24 часа, мм.
S - Снежный покров - Высота снежного покрова, см. При наведении курсора мыши на число - состояние снежного покрова и степень покрытия местности в баллах.